Temperature
14 13 13 13 13 13 13 13 12 12 12 12 12 12 12 12 12 11 11 11 11 10 10 10 10 9 9 9 9 9 9 9 9 9 9 9 9 9 9 8 8 8 8
13 13 13 13 13 13 12 12 12 12 12 12 12 12 12 12 11 11 11 11 10 10 10 9 9 9 9 9 9 9 9 8 8 8 8 8 8 8 8 8 8 7 7
13 13 13 13 12 12 12 12 12 12 12 12 12 12 11 11 11 11 10 10 10 9 9 9 9 8 8 8 8 8 8 8 8 8 8 8 8 7 7 7 7 7 7
13 13 13 12 12 12 12 12 12 12 12 11 11 11 11 11 11 10 10 9 9 9 9 9 8 8 8 8 8 8 7 7 7 7 7 7 7 7 7 6 6 6 6
13 13 12 12 12 12 12 12 11 11 11 11 11 11 11 10 10 10 9 9 9 8 8 8 8 8 7 7 7 7 7 7 7 7 7 7 6 6 6 6 6 6 6
12 12 12 12 12 12 12 11 11 11 11 10 10 10 10 10 10 9 9 8 8 8 8 7 7 7 7 7 7 7 7 6 6 6 6 6 6 6 6 6 6 6 6
12 12 12 12 11 11 11 11 11 11 10 10 10 10 10 9 9 9 8 8 8 7 7 7 7 7 7 6 6 6 6 6 6 6 6 6 5 5 5 5 5 5 5
12 12 11 11 11 11 11 10 10 10 10 9 8 8 8 8 8 8 8 7 7 7 7 6 6 6 6 6 6 6 6 5 5 5 5 5 5 5 5 5 5 5 5
11 11 11 11 11 11 10 10 10 9 9 9 8 7 6 6 6 7 7 7 6 6 6 6 6 6 6 6 5 5 5 5 5 5 5 5 5 4 4 5 5 5 5
11 11 11 10 10 10 10 9 9 9 8 8 8 7 6 6 6 6 6 6 6 6 6 6 6 5 5 5 5 5 5 4 4 4 4 4 4 4 4 4 4 4 4
10 10 10 10 10 10 9 9 9 8 8 8 7 7 6 6 5 5 5 6 6 6 5 5 5 5 5 5 5 4 4 4 4 4 4 4 4 4 4 4 4 4 4
10 10 10 10 9 9 9 8 8 8 8 7 7 6 6 5 5 4 4 5 5 5 5 5 5 5 4 4 4 4 4 4 3 3 3 3 3 3 3 3 3 4 4
10 10 9 9 9 9 8 8 8 7 7 7 6 6 5 5 5 4 4 4 4 4 4 5 4 4 4 4 4 3 3 3 3 3 3 3 3 3 3 3 3 3 3
10 9 9 9 9 8 8 8 7 7 6 6 5 5 5 5 4 4 4 3 3 3 4 4 4 4 3 3 3 3 3 3 3 3 2 3 2 2 2 3 3 3 3
9 9 9 8 8 8 7 7 7 6 6 5 5 5 5 4 4 4 3 3 2 2 2 3 3 3 3 3 3 3 3 3 2 2 2 2 2 2 2 2 2 2 2
9 8 8 8 8 7 7 7 6 6 5 5 5 4 4 4 3 3 3 3 2 2 1 2 2 2 2 2 2 2 2 2 2 2 2 2 2 2 2 2 2 2 2
8 8 8 7 7 7 6 6 6 5 5 5 4 4 3 3 3 3 3 2 2 2 1 2 2 2 2 2 2 2 2 2 2 2 2 2 2 1 2 2 1 2 2
7 7 7 7 6 6 6 6 5 5 4 4 4 3 3 3 3 2 2 2 2 1 1 1 2 2 2 2 2 2 2 2 1 2 1 1 1 1 1 1 1 1 1
7 7 6 6 6 6 5 5 5 4 4 3 3 3 3 2 2 2 2 2 1 1 1 1 1 1 1 1 1 1 1 1 1 1 1 1 1 1 1 1 1 1 1
6 6 6 6 5 5 5 4 4 4 3 3 3 2 2 2 2 2 2 1 1 1 1 1 1 1 1 1 1 1 1 1 1 1 1 1 1 1 0 1 1 1 0
6 5 5 5 5 4 4 3 3 3 3 3 2 2 2 2 2 1 1 1 1 1 1 0 0 0 0 0 -0 -0 -0 0 1 1 1 1 0 0 0 0 0 0 0
5 5 4 4 4 3 3 3 3 2 2 2 2 2 2 2 1 1 1 1 0 0 0 0 -0 -0 -0 -1 -1 -1 -1 -1 -0 -0 -0 0 -0 -0 -0 -0 -0 -0 0
4 4 4 3 3 3 3 2 2 2 2 2 2 1 1 1 1 1 1 0 0 0 -0 -0 -1 -1 -1 -1 -1 -1 -1 -1 -1 -1 -1 -0 -0 -0 -0 -0 -0 -0 -0
3 3 3 3 2 2 2 2 1 1 1 1 1 1 1 1 1 1 0 0 0 0 -0 -0 -1 -1 -1 -1 -1 -1 -1 -1 -1 -1 -1 -1 -1 -1 -1 -1 -1 -1 -1
3 3 2 2 2 2 1 1 1 1 1 1 1 1 0 0 0 0 0 0 0 -0 -0 -1 -1 -1 -1 -1 -2 -2 -2 -2 -2 -1 -2 -2 -2 -1 -1 -1 -1 -1 -1
2 2 2 1 1 1 1 0 0 0 0 0 0 0 0 -0 -0 -0 -0 -0 -0 -0 -0 -1 -1 -1 -1 -1 -1 -2 -2 -2 -3 -3 -2 -3 -3 -3 -2 -1 -1 -1 -1
Wind_Speed
5 5 5 5 5 5 4 4 4 5 5 6 6 6 5 5 5 5 4 5 6 8 9 11 11 11 12 13 13 13 13 14 14 15 15 15 15 15 16 16 16 16 17
6 5 5 5 5 5 5 4 5 4 4 4 4 5 4 4 4 4 4 4 5 7 9 11 11 12 12 13 13 14 14 15 15 15 16 16 16 16 16 17 17 17 17
7 6 4 4 4 5 5 5 5 4 3 3 3 4 4 4 3 3 4 4 5 6 8 10 11 12 13 13 14 14 15 15 16 16 17 17 17 17 17 18 18 18 18
8 7 5 3 5 5 5 3 2 2 2 2 2 2 2 2 2 2 3 4 4 5 7 9 11 12 13 14 14 15 15 16 17 17 17 18 18 18 18 19 19 19 19
8 7 5 4 5 4 3 3 3 2 2 3 2 2 2 2 1 2 2 2 3 5 6 8 10 12 13 14 15 16 16 17 17 18 18 18 19 19 19 20 20 20 19
7 7 5 4 4 3 2 2 3 3 2 2 3 3 3 3 1 1 1 2 3 4 6 7 8 9 12 14 15 16 17 18 18 19 19 19 20 20 20 20 20 20 20
7 6 4 4 3 2 1 2 2 2 2 3 2 2 3 3 1 1 1 2 3 5 6 7 7 8 9 13 14 16 18 19 19 20 20 21 21 21 21 21 20 20 20
6 5 4 3 3 2 2 2 2 1 2 2 1 2 3 4 3 3 2 2 3 4 5 7 8 8 9 9 11 15 17 19 20 21 21 21 22 22 22 22 21 21 21
6 5 4 3 3 2 2 2 2 2 1 2 2 1 1 2 4 3 3 3 3 4 4 6 7 8 9 9 10 12 16 18 21 21 22 22 22 22 23 22 22 22 22
5 5 5 4 3 2 2 1 2 1 1 1 2 1 0 1 1 4 4 3 4 5 5 6 7 8 9 10 11 14 17 19 21 21 22 22 22 23 23 22 22 23 23
5 5 4 4 3 2 2 2 2 1 1 1 1 2 2 2 2 2 6 6 6 5 5 6 6 7 9 10 10 14 18 19 21 21 22 22 23 23 23 23 23 23 24
3 4 4 3 2 2 2 1 1 0 0 1 1 1 1 1 2 3 5 7 7 6 6 5 5 5 8 10 13 18 19 19 20 21 22 22 22 22 23 23 23 23 24
3 3 3 2 2 2 1 1 1 0 0 1 1 1 1 2 2 3 4 6 7 7 5 4 4 5 9 11 13 19 18 20 21 21 21 21 21 22 22 23 23 23 23
3 3 3 2 2 2 1 1 0 0 0 0 1 2 2 2 2 2 3 5 7 7 5 6 4 4 9 13 15 19 17 20 21 21 21 21 21 21 22 22 23 22 23
3 3 3 2 2 1 1 1 1 1 0 1 1 2 2 2 2 2 3 3 4 7 8 6 5 6 11 13 16 16 16 19 21 20 20 20 20 20 21 22 22 22 22
3 3 3 2 2 1 1 1 1 1 0 1 2 2 2 3 2 2 3 4 4 5 8 7 7 8 10 13 17 17 16 20 20 20 20 20 20 20 21 21 21 21 22
4 4 3 3 3 2 2 1 1 1 1 2 2 2 3 3 3 3 3 4 4 5 9 10 7 8 10 10 13 14 15 14 15 19 20 20 20 20 20 21 20 21 21
4 3 3 3 3 2 2 2 1 1 1 2 2 3 4 4 4 4 4 4 5 5 7 11 10 9 10 10 10 11 12 14 14 17 19 19 20 19 20 20 20 20 21
3 3 3 3 3 2 2 2 2 2 2 2 3 3 4 4 5 4 5 5 5 6 6 8 10 9 8 8 9 10 11 10 13 15 17 17 19 19 19 20 19 20 19
3 3 3 2 2 2 2 2 1 2 2 3 3 3 4 4 5 5 5 5 6 7 7 8 9 9 8 8 8 9 10 9 10 11 13 15 17 18 18 19 19 19 18
2 2 2 2 2 2 2 1 1 2 2 3 3 4 4 5 6 6 6 6 6 6 6 7 8 9 8 9 9 7 10 10 9 6 7 9 10 9 11 15 16 17 18
2 2 2 2 2 1 1 2 2 2 2 3 4 4 5 4 6 8 10 10 9 7 7 7 7 9 10 9 9 9 9 10 8 5 7 9 7 7 8 9 15 17 18
2 2 1 2 1 1 1 2 3 2 2 3 3 3 4 5 6 5 8 10 10 11 10 7 8 9 10 9 10 10 9 10 9 7 7 8 6 7 9 11 16 17 17
2 2 1 1 1 1 1 2 3 2 2 3 3 3 4 4 5 6 6 6 7 7 9 7 7 8 8 8 8 8 9 9 8 6 5 6 7 7 8 9 13 16 17
2 1 1 1 0 1 2 3 3 1 2 3 4 4 4 4 8 9 6 7 8 8 10 12 13 13 14 14 11 7 7 7 8 6 3 4 5 7 6 5 9 14 15
2 1 1 1 0 0 2 3 4 1 2 3 3 3 5 7 9 9 5 6 8 8 8 9 9 10 10 10 11 6 5 6 7 6 4 5 5 6 5 4 5 8 10
Wind_Direction
92 88 82 78 72 64 50 46 49 42 38 36 39 38 37 45 52 56 48 30 17 8 2 359 357 355 352 350 347 346 343 339 336 334 332 329 327 325 322 319 317 314 312
94 89 79 70 63 52 45 48 49 43 31 33 30 31 27 36 41 45 48 30 12 3 358 354 351 350 347 346 344 342 340 338 335 333 330 327 325 322 320 317 315 313 311
95 91 83 70 62 54 47 51 49 47 34 25 13 17 21 24 24 37 35 27 15 2 353 349 346 344 343 342 340 339 337 335 334 332 329 326 322 319 316 313 312 310 310
100 90 81 66 61 54 46 42 44 35 21 12 356 344 356 6 5 35 39 28 13 0 350 344 340 338 338 337 335 335 334 332 331 329 327 325 321 318 315 312 311 309 308
101 95 87 76 64 57 44 28 33 31 15 3 341 328 321 319 324 24 27 18 7 358 350 341 335 332 332 332 332 332 331 330 329 327 326 324 321 317 314 312 310 308 307
100 93 86 81 73 63 44 39 39 25 16 341 329 327 306 293 290 23 339 345 345 344 341 336 332 329 327 327 327 328 329 328 327 326 324 322 320 318 315 312 309 307 306
102 95 85 77 71 71 64 60 51 30 9 350 354 327 308 295 285 338 318 322 326 328 328 327 327 327 326 322 322 324 325 326 326 325 324 321 319 317 315 313 311 307 305
109 104 92 84 73 72 56 48 52 40 6 9 17 347 334 327 321 301 294 300 307 321 320 324 321 322 322 321 319 322 323 323 324 324 323 322 319 317 315 315 312 310 307
116 110 103 92 78 85 82 52 54 60 4 340 22 63 36 295 312 295 289 299 322 318 313 317 315 319 321 321 321 325 325 324 323 322 322 322 320 318 318 317 315 312 310
124 117 108 99 84 74 84 62 49 34 51 330 340 15 344 266 321 310 303 309 317 313 312 320 318 314 319 321 322 325 325 324 323 323 323 322 322 321 320 319 317 314 312
127 121 112 98 86 80 78 64 54 28 33 347 333 328 326 330 293 285 300 310 314 303 308 309 310 315 322 325 326 325 325 323 322 322 322 322 322 322 321 320 319 318 315
131 124 119 106 98 88 85 78 80 59 359 343 329 335 326 319 308 302 294 304 307 305 304 300 305 316 326 330 327 326 324 323 323 324 324 323 323 322 322 321 321 320 318
153 155 124 109 101 99 98 88 83 161 265 306 301 300 305 291 296 299 298 302 305 302 301 300 304 327 335 335 327 324 323 322 322 323 323 323 324 322 322 322 322 321 320
162 148 139 140 130 127 116 101 94 207 43 340 316 312 310 304 302 297 295 305 309 305 301 297 306 326 335 328 321 322 320 319 319 320 321 322 322 322 323 323 322 321 320
145 143 152 150 152 145 139 120 155 219 177 295 298 305 307 299 298 300 301 293 292 303 302 299 314 313 325 324 320 321 317 316 319 319 320 321 322 323 324 324 323 322 322
141 153 158 159 159 154 147 135 177 209 251 296 296 306 314 310 314 307 298 293 280 280 290 295 302 307 319 319 318 321 317 318 317 318 320 321 322 323 325 325 325 325 324
150 158 167 171 174 175 166 170 195 194 248 288 300 305 305 307 306 299 297 294 290 287 290 299 300 310 313 313 318 319 318 316 315 316 320 322 324 324 325 325 326 327 326
152 162 163 173 184 186 182 179 194 228 249 273 291 301 302 308 305 301 298 293 291 289 292 301 307 313 311 313 316 316 320 320 316 316 321 322 324 325 326 327 327 326 326
151 154 160 178 192 195 189 193 206 234 259 274 287 290 294 300 300 302 299 295 295 299 295 299 305 309 311 317 319 316 318 316 317 319 320 321 322 325 327 328 328 328 329
153 162 178 189 195 200 200 200 213 255 271 283 286 288 291 286 287 292 296 294 300 303 303 303 305 311 314 316 321 323 322 322 317 320 323 322 321 323 325 328 330 331 333
154 163 172 184 186 193 208 210 238 263 270 288 290 289 288 294 301 308 308 306 308 304 306 307 309 314 318 326 326 321 320 319 313 316 323 319 318 316 320 325 331 334 336
135 139 159 169 176 212 259 290 304 272 280 284 291 295 295 291 304 315 316 316 313 306 307 305 306 311 314 317 318 320 321 323 315 326 324 315 320 316 320 320 329 335 338
117 122 139 145 162 215 262 291 312 314 284 284 287 292 303 308 311 301 309 314 311 310 307 304 302 304 306 313 316 317 318 315 305 314 322 306 315 312 317 320 330 335 340
121 124 111 123 144 269 317 317 315 319 295 295 293 289 294 299 304 314 311 310 305 304 302 300 291 293 299 304 305 306 306 309 301 306 323 304 311 311 311 314 327 338 342
101 108 121 111 121 293 314 323 339 299 300 298 297 302 306 296 309 322 321 313 311 309 311 308 304 304 309 317 323 324 324 325 317 312 323 315 310 314 307 306 325 340 345
106 102 85 72 66 281 319 335 343 320 310 312 306 304 306 311 315 322 317 311 311 312 316 319 317 316 315 317 322 317 311 315 314 308 321 328 314 327 321 308 321 336 340
Height
1543 1544 1545 1545 1546 1546 1546 1546 1546 1546 1546 1545 1544 1544 1543 1542 1540 1539 1538 1536 1535 1533 1532 1530 1528 1526 1524 1522 1520 1518 1516 1514 1512 1510 1507 1505 1503 1501 1498 1497 1494 1492 1491
1542 1543 1544 1544 1545 1545 1546 1546 1545 1545 1544 1544 1543 1542 1541 1540 1539 1538 1536 1535 1534 1532 1530 1528 1526 1524 1522 1520 1518 1515 1513 1511 1508 1506 1504 1501 1499 1497 1494 1492 1490 1488 1486
1542 1542 1543 1544 1544 1545 1545 1545 1545 1544 1543 1543 1542 1541 1540 1539 1538 1536 1535 1534 1532 1530 1528 1527 1524 1522 1520 1517 1515 1513 1510 1508 1505 1503 1500 1498 1495 1493 1490 1488 1486 1484 1482
1541 1541 1542 1543 1543 1544 1544 1544 1543 1543 1542 1541 1540 1539 1538 1537 1536 1535 1533 1532 1530 1528 1526 1524 1522 1520 1517 1515 1512 1510 1507 1504 1502 1499 1497 1494 1491 1489 1486 1484 1481 1479 1477
1540 1541 1541 1542 1543 1543 1543 1543 1542 1541 1540 1539 1538 1538 1537 1535 1534 1533 1532 1530 1529 1527 1524 1522 1520 1517 1515 1512 1510 1507 1504 1501 1499 1496 1493 1490 1487 1484 1482 1479 1476 1474 1472
1539 1540 1540 1541 1541 1542 1541 1541 1541 1540 1539 1538 1536 1535 1535 1533 1532 1531 1530 1529 1527 1525 1522 1520 1517 1515 1512 1509 1507 1504 1501 1498 1495 1492 1489 1486 1483 1480 1477 1474 1472 1469 1467
1538 1539 1539 1540 1540 1540 1540 1540 1539 1538 1537 1536 1534 1533 1532 1531 1530 1530 1528 1526 1525 1523 1520 1517 1515 1512 1509 1506 1503 1500 1497 1494 1491 1488 1485 1482 1479 1475 1473 1469 1466 1464 1461
1536 1537 1538 1538 1538 1538 1538 1538 1537 1536 1536 1535 1534 1531 1530 1529 1528 1527 1526 1524 1522 1520 1518 1515 1512 1509 1506 1503 1500 1497 1494 1491 1487 1484 1481 1477 1474 1471 1468 1465 1461 1458 1456
1535 1536 1536 1537 1537 1537 1536 1536 1536 1535 1534 1534 1534 1533 1531 1528 1525 1523 1523 1522 1520 1517 1515 1512 1509 1506 1503 1500 1497 1493 1490 1487 1484 1480 1477 1473 1470 1466 1463 1460 1456 1453 1450
1533 1534 1534 1535 1535 1535 1535 1534 1534 1534 1533 1532 1532 1532 1532 1530 1527 1522 1520 1519 1517 1515 1512 1510 1507 1503 1500 1497 1494 1490 1487 1483 1480 1476 1472 1469 1465 1461 1458 1454 1451 1448 1445
1531 1531 1532 1532 1533 1533 1533 1532 1532 1532 1531 1531 1530 1529 1529 1528 1526 1523 1518 1514 1513 1511 1509 1506 1503 1500 1497 1494 1490 1486 1483 1479 1475 1472 1468 1464 1460 1457 1453 1449 1446 1443 1439
1528 1529 1530 1530 1531 1531 1531 1530 1530 1530 1529 1529 1528 1527 1526 1525 1524 1521 1517 1512 1509 1507 1505 1503 1500 1497 1494 1490 1487 1483 1479 1475 1471 1468 1464 1460 1456 1452 1448 1445 1441 1437 1434
1525 1526 1527 1528 1528 1528 1528 1528 1528 1527 1527 1526 1526 1525 1524 1523 1521 1519 1516 1511 1507 1503 1501 1499 1497 1494 1491 1487 1483 1479 1475 1471 1467 1463 1459 1455 1451 1448 1444 1440 1436 1432 1428
1522 1523 1524 1525 1525 1526 1526 1525 1525 1525 1524 1524 1523 1522 1521 1520 1518 1517 1514 1510 1505 1500 1498 1496 1493 1490 1487 1483 1479 1475 1471 1467 1463 1459 1455 1451 1447 1443 1439 1435 1431 1427 1423
1519 1520 1521 1522 1522 1522 1522 1522 1522 1522 1521 1521 1520 1519 1518 1516 1515 1514 1512 1509 1506 1499 1493 1491 1489 1486 1483 1479 1475 1471 1467 1463 1459 1455 1451 1447 1443 1439 1435 1431 1426 1422 1418
1515 1517 1518 1518 1519 1519 1519 1519 1519 1519 1518 1518 1517 1516 1515 1513 1512 1510 1508 1506 1504 1500 1493 1488 1486 1483 1479 1475 1471 1467 1463 1459 1455 1451 1447 1443 1439 1435 1431 1426 1422 1417 1413
1512 1513 1514 1515 1515 1516 1516 1516 1516 1515 1515 1514 1514 1512 1511 1510 1508 1506 1505 1503 1500 1497 1491 1485 1483 1479 1475 1471 1467 1463 1459 1455 1451 1447 1443 1439 1435 1431 1426 1422 1418 1413 1409
1509 1510 1511 1511 1512 1512 1512 1512 1512 1512 1511 1511 1510 1509 1508 1506 1505 1503 1501 1498 1496 1493 1489 1483 1478 1475 1471 1467 1463 1459 1455 1451 1447 1443 1439 1435 1431 1427 1423 1418 1414 1409 1405
1505 1506 1507 1508 1508 1509 1509 1509 1509 1509 1508 1508 1507 1506 1504 1503 1501 1499 1497 1495 1492 1489 1486 1481 1475 1471 1467 1464 1459 1455 1451 1446 1442 1439 1435 1431 1427 1423 1419 1414 1410 1406 1401
1501 1502 1503 1504 1505 1505 1505 1505 1505 1505 1505 1504 1504 1503 1501 1500 1498 1496 1493 1491 1488 1485 1482 1478 1473 1468 1464 1460 1456 1451 1445 1441 1438 1434 1431 1427 1423 1419 1415 1411 1407 1402 1398
1498 1499 1500 1501 1501 1502 1502 1502 1502 1502 1501 1501 1500 1499 1498 1497 1495 1493 1491 1488 1485 1481 1478 1474 1470 1465 1461 1456 1452 1448 1443 1438 1434 1431 1426 1423 1419 1415 1411 1407 1403 1399 1395
1495 1496 1497 1497 1498 1498 1498 1499 1499 1498 1498 1497 1496 1495 1494 1493 1491 1490 1487 1485 1482 1479 1475 1471 1467 1463 1458 1455 1450 1446 1441 1435 1429 1428 1424 1419 1417 1412 1408 1404 1401 1397 1393
1491 1492 1493 1494 1494 1495 1495 1495 1495 1495 1494 1493 1493 1492 1491 1489 1488 1485 1483 1481 1478 1476 1473 1470 1465 1461 1457 1453 1448 1444 1440 1435 1430 1426 1422 1416 1413 1409 1406 1402 1399 1396 1392
1488 1489 1490 1491 1491 1492 1492 1492 1492 1491 1491 1490 1489 1488 1487 1486 1484 1482 1479 1476 1474 1471 1469 1465 1462 1458 1455 1451 1447 1443 1438 1433 1429 1425 1421 1415 1410 1407 1404 1400 1397 1394 1390
1485 1486 1487 1488 1488 1488 1489 1489 1489 1488 1487 1486 1486 1485 1484 1482 1481 1479 1475 1472 1469 1467 1465 1462 1459 1455 1452 1448 1444 1440 1435 1430 1425 1421 1419 1415 1409 1405 1401 1398 1396 1393 1389
1483 1484 1484 1485 1485 1486 1486 1486 1485 1485 1484 1483 1482 1481 1480 1479 1477 1475 1472 1469 1465 1463 1460 1457 1454 1451 1448 1444 1441 1437 1433 1429 1424 1420 1417 1414 1409 1405 1399 1397 1395 1391 1388